Time,TemperatureF,DewpointF,PressureIn,WindDirection,WindDirectionDegrees,WindSpeedMPH,WindSpeedGustMPH,Humidity,HourlyPrecipIn,Conditions,Clouds,dailyrainin,SoftwareType,DateUTC
2013-05-17 00:01:00,59.7,52.0,27.94,East,90,0.0,0.0,76,0.00,,,0.00,WSDL version 423,2013-05-17 04:01:00,
2013-05-17 00:06:00,59.5,51.9,27.94,East,90,0.0,0.0,76,0.00,,,0.00,WSDL version 423,2013-05-17 04:06:00,
2013-05-17 00:11:00,59.3,51.8,27.94,East,90,0.0,0.0,76,0.00,,,0.00,WSDL version 423,2013-05-17 04:11:00,
2013-05-17 00:16:00,59.2,51.8,27.94,East,90,0.0,0.0,77,0.00,,,0.00,WSDL version 423,2013-05-17 04:16:00,
2013-05-17 00:21:00,59.2,52.1,27.94,East,90,0.0,0.0,78,0.00,,,0.00,WSDL version 423,2013-05-17 04:21:00,
2013-05-17 00:26:00,59.2,52.2,27.94,East,90,0.0,0.0,78,0.00,,,0.00,WSDL version 423,2013-05-17 04:26:00,
2013-05-17 00:31:00,59.2,52.3,27.94,East,90,0.0,0.0,78,0.00,,,0.00,WSDL version 423,2013-05-17 04:31:00,
2013-05-17 00:36:00,59.1,52.2,27.94,East,90,0.0,0.0,78,0.00,,,0.00,WSDL version 423,2013-05-17 04:36:00,
2013-05-17 00:41:00,59.0,52.2,27.94,East,90,0.0,0.0,78,0.00,,,0.00,WSDL version 423,2013-05-17 04:41:00,
2013-05-17 00:46:00,59.0,52.0,27.94,East,90,0.0,0.0,77,0.00,,,0.00,WSDL version 423,2013-05-17 04:46:00,
2013-05-17 00:51:00,58.8,51.6,27.94,East,90,0.0,0.0,77,0.00,,,0.00,WSDL version 423,2013-05-17 04:51:00,
2013-05-17 00:56:00,58.5,51.4,27.94,East,90,0.0,0.0,78,0.00,,,0.00,WSDL version 423,2013-05-17 04:56:00,
2013-05-17 01:01:00,58.3,51.6,27.94,East,90,0.0,0.0,78,0.00,,,0.00,WSDL version 423,2013-05-17 05:01:00,
2013-05-17 01:06:00,58.3,51.6,27.94,East,90,0.0,0.0,79,0.00,,,0.00,WSDL version 423,2013-05-17 05:06:00,
2013-05-17 01:11:00,58.3,51.9,27.94,East,90,0.0,0.0,80,0.00,,,0.00,WSDL version 423,2013-05-17 05:11:00,
2013-05-17 01:21:00,58.0,51.3,27.94,East,90,0.0,0.0,79,0.00,,,0.00,WSDL version 423,2013-05-17 05:21:00,
2013-05-17 01:26:00,57.9,51.6,27.94,East,90,0.0,0.0,80,0.00,,,0.00,WSDL version 423,2013-05-17 05:26:00,
2013-05-17 01:31:00,57.7,51.3,27.94,East,90,0.0,0.0,79,0.00,,,0.00,WSDL version 423,2013-05-17 05:31:00,
2013-05-17 01:36:00,57.7,51.3,27.94,East,90,0.0,0.0,80,0.00,,,0.00,WSDL version 423,2013-05-17 05:36:00,
2013-05-17 01:41:00,57.6,51.4,27.94,East,90,0.0,0.0,80,0.00,,,0.00,WSDL version 423,2013-05-17 05:41:00,
2013-05-17 01:46:00,57.6,51.4,27.94,East,90,0.0,0.0,80,0.00,,,0.00,WSDL version 423,2013-05-17 05:46:00,
2013-05-17 01:51:00,57.6,51.4,27.94,East,90,0.0,0.0,80,0.00,,,0.00,WSDL version 423,2013-05-17 05:51:00,
2013-05-17 01:56:00,57.6,51.4,27.94,East,90,0.0,0.0,80,0.00,,,0.00,WSDL version 423,2013-05-17 05:56:00,
2013-05-17 02:01:00,57.6,51.4,27.94,East,90,0.0,0.0,80,0.00,,,0.00,WSDL version 423,2013-05-17 06:01:00,
2013-05-17 02:06:00,57.4,51.4,27.94,East,90,0.0,0.0,81,0.00,,,0.00,WSDL version 423,2013-05-17 06:06:00,
2013-05-17 02:11:00,57.4,51.3,27.94,East,90,0.0,0.0,80,0.00,,,0.00,WSDL version 423,2013-05-17 06:11:00,
2013-05-17 02:16:00,57.4,51.3,27.94,East,90,0.0,0.0,80,0.00,,,0.00,WSDL version 423,2013-05-17 06:16:00,
2013-05-17 02:21:00,57.2,51.2,27.96,East,90,0.0,0.0,81,0.00,,,0.00,WSDL version 423,2013-05-17 06:21:00,
2013-05-17 02:26:00,57.2,51.3,27.96,East,90,0.0,0.0,81,0.00,,,0.00,WSDL version 423,2013-05-17 06:26:00,
2013-05-17 02:31:00,57.2,51.5,27.96,East,90,0.0,0.0,81,0.00,,,0.00,WSDL version 423,2013-05-17 06:31:00,
2013-05-17 02:36:00,57.2,51.5,27.94,East,90,0.0,0.0,81,0.00,,,0.00,WSDL version 423,2013-05-17 06:36:00,
2013-05-17 02:41:00,57.2,51.7,27.94,East,90,0.0,0.0,81,0.00,,,0.00,WSDL version 423,2013-05-17 06:41:00,
2013-05-17 02:46:00,57.2,51.5,27.94,East,90,0.0,0.0,81,0.00,,,0.00,WSDL version 423,2013-05-17 06:46:00,
2013-05-17 02:51:00,57.2,51.7,27.94,East,90,0.0,0.0,82,0.00,,,0.00,WSDL version 423,2013-05-17 06:51:00,
2013-05-17 02:56:00,57.1,51.7,27.94,East,90,0.0,0.0,82,0.00,,,0.00,WSDL version 423,2013-05-17 06:56:00,
2013-05-17 03:01:00,57.0,51.9,27.94,East,90,0.0,0.0,83,0.00,,,0.00,WSDL version 423,2013-05-17 07:01:00,
2013-05-17 03:06:00,57.2,51.9,27.94,East,90,0.0,0.0,82,0.00,,,0.00,WSDL version 423,2013-05-17 07:06:00,
2013-05-17 03:11:00,57.2,51.9,27.94,East,90,0.0,0.0,83,0.00,,,0.00,WSDL version 423,2013-05-17 07:11:00,
2013-05-17 03:16:00,57.2,52.2,27.94,East,90,0.0,0.0,83,0.00,,,0.00,WSDL version 423,2013-05-17 07:16:00,
2013-05-17 03:21:00,57.2,51.8,27.94,East,90,0.0,0.0,82,0.00,,,0.00,WSDL version 423,2013-05-17 07:21:00,
2013-05-17 03:26:00,57.2,51.8,27.94,East,90,0.0,0.0,82,0.00,,,0.00,WSDL version 423,2013-05-17 07:26:00,
2013-05-17 03:31:00,57.1,51.9,27.94,East,90,0.0,0.0,82,0.00,,,0.00,WSDL version 423,2013-05-17 07:31:00,
2013-05-17 03:36:00,57.0,52.0,27.96,East,90,0.0,0.0,83,0.00,,,0.00,WSDL version 423,2013-05-17 07:36:00,
2013-05-17 03:41:00,57.0,52.0,27.96,East,90,0.0,0.0,83,0.00,,,0.00,WSDL version 423,2013-05-17 07:41:00,
2013-05-17 03:46:00,57.1,52.1,27.96,East,90,0.0,0.0,83,0.00,,,0.00,WSDL version 423,2013-05-17 07:46:00,
2013-05-17 03:51:00,57.2,52.2,27.94,East,90,0.0,0.0,83,0.00,,,0.00,WSDL version 423,2013-05-17 07:51:00,
2013-05-17 03:56:00,57.2,52.2,27.94,East,90,0.0,0.0,83,0.00,,,0.00,WSDL version 423,2013-05-17 07:56:00,
2013-05-17 04:01:00,57.2,52.2,27.94,East,90,0.0,0.0,83,0.00,,,0.00,WSDL version 423,2013-05-17 08:01:00,
2013-05-17 04:06:00,57.2,52.2,27.96,East,90,0.0,0.0,83,0.00,,,0.00,WSDL version 423,2013-05-17 08:06:00,
2013-05-17 04:11:00,57.2,52.2,27.96,East,90,0.0,0.0,83,0.00,,,0.00,WSDL version 423,2013-05-17 08:11:00,
2013-05-17 04:16:00,57.1,52.1,27.96,East,90,0.0,0.0,83,0.00,,,0.00,WSDL version 423,2013-05-17 08:16:00,
2013-05-17 04:21:00,57.0,52.2,27.96,East,90,0.0,0.0,84,0.00,,,0.00,WSDL version 423,2013-05-17 08:21:00,
2013-05-17 04:26:00,57.0,52.4,27.96,East,90,0.0,0.0,84,0.00,,,0.00,WSDL version 423,2013-05-17 08:26:00,
2013-05-17 04:31:00,57.0,52.4,27.96,East,90,0.0,0.0,84,0.00,,,0.00,WSDL version 423,2013-05-17 08:31:00,
2013-05-17 04:36:00,57.0,52.4,27.96,East,90,0.0,0.0,84,0.00,,,0.00,WSDL version 423,2013-05-17 08:36:00,
2013-05-17 04:41:00,57.0,52.4,27.96,East,90,0.0,0.0,84,0.00,,,0.00,WSDL version 423,2013-05-17 08:41:00,
2013-05-17 04:46:00,57.0,52.4,27.96,East,90,0.0,0.0,84,0.00,,,0.00,WSDL version 423,2013-05-17 08:46:00,
2013-05-17 04:51:00,57.0,52.4,27.96,East,90,0.0,0.0,84,0.00,,,0.00,WSDL version 423,2013-05-17 08:51:00,
2013-05-17 04:56:00,57.0,52.4,27.96,East,90,0.0,0.0,84,0.00,,,0.00,WSDL version 423,2013-05-17 08:56:00,
2013-05-17 05:01:00,57.0,52.4,27.96,East,90,0.0,0.0,84,0.00,,,0.00,WSDL version 423,2013-05-17 09:01:00,
2013-05-17 05:06:00,57.0,52.4,27.96,East,90,0.0,0.0,84,0.00,,,0.00,WSDL version 423,2013-05-17 09:06:00,
2013-05-17 05:11:00,57.0,52.5,27.96,East,90,0.0,0.0,84,0.00,,,0.00,WSDL version 423,2013-05-17 09:11:00,
2013-05-17 05:16:00,57.0,52.7,27.96,East,90,0.0,0.0,86,0.00,,,0.00,WSDL version 423,2013-05-17 09:16:00,
2013-05-17 05:21:00,57.0,52.7,27.96,East,90,0.0,0.0,86,0.00,,,0.00,WSDL version 423,2013-05-17 09:21:00,
2013-05-17 05:26:00,56.8,52.4,27.96,East,90,0.0,0.0,86,0.00,,,0.00,WSDL version 423,2013-05-17 09:26:00,
2013-05-17 05:31:00,56.7,52.5,27.96,East,90,0.0,0.0,86,0.00,,,0.00,WSDL version 423,2013-05-17 09:31:00,
2013-05-17 05:36:00,56.7,52.4,27.99,East,90,0.0,0.0,86,0.00,,,0.00,WSDL version 423,2013-05-17 09:36:00,
2013-05-17 05:41:00,56.7,52.4,27.99,East,90,0.0,0.0,86,0.00,,,0.00,WSDL version 423,2013-05-17 09:41:00,
2013-05-17 05:46:00,56.6,52.4,27.99,East,90,0.0,0.0,86,0.00,,,0.00,WSDL version 423,2013-05-17 09:46:00,
2013-05-17 05:51:00,56.5,52.2,27.99,East,90,0.0,0.0,86,0.00,,,0.00,WSDL version 423,2013-05-17 09:51:00,
2013-05-17 05:56:00,56.4,52.2,27.99,East,90,0.0,0.0,86,0.00,,,0.00,WSDL version 423,2013-05-17 09:56:00,
2013-05-17 06:01:00,56.3,52.0,27.99,East,90,0.0,0.0,86,0.00,,,0.00,WSDL version 423,2013-05-17 10:01:00,
2013-05-17 06:06:00,56.3,52.0,27.99,East,90,0.0,0.0,86,0.00,,,0.00,WSDL version 423,2013-05-17 10:06:00,
2013-05-17 06:11:00,56.3,52.0,27.99,East,90,0.0,0.0,86,0.00,,,0.00,WSDL version 423,2013-05-17 10:11:00,
2013-05-17 06:16:00,56.2,52.0,27.99,East,90,0.0,0.0,86,0.00,,,0.00,WSDL version 423,2013-05-17 10:16:00,
2013-05-17 06:21:00,56.0,51.6,27.99,East,90,0.0,0.0,84,0.00,,,0.00,WSDL version 423,2013-05-17 10:21:00,
2013-05-17 06:26:00,55.8,51.2,27.99,East,90,0.0,0.0,84,0.00,,,0.00,WSDL version 423,2013-05-17 10:26:00,
2013-05-17 06:31:00,55.5,50.9,27.99,East,90,0.0,0.0,84,0.00,,,0.00,WSDL version 423,2013-05-17 10:31:00,
2013-05-17 06:36:00,55.4,50.8,27.99,East,90,0.0,0.0,84,0.00,,,0.00,WSDL version 423,2013-05-17 10:36:00,
2013-05-17 06:41:00,55.4,50.8,27.99,East,90,0.0,0.0,84,0.00,,,0.00,WSDL version 423,2013-05-17 10:41:00,
2013-05-17 06:46:00,55.4,51.1,27.99,East,90,0.0,0.0,86,0.00,,,0.00,WSDL version 423,2013-05-17 10:46:00,
2013-05-17 06:51:00,55.3,51.0,27.99,East,90,0.0,0.0,84,0.00,,,0.00,WSDL version 423,2013-05-17 10:51:00,
2013-05-17 06:56:00,55.0,50.4,27.99,East,90,0.0,0.0,84,0.00,,,0.00,WSDL version 423,2013-05-17 10:56:00,
2013-05-17 07:01:00,54.9,50.5,27.99,East,90,0.0,0.0,86,0.00,,,0.00,WSDL version 423,2013-05-17 11:01:00,
2013-05-17 07:06:00,54.9,50.6,27.99,East,90,0.0,0.0,86,0.00,,,0.00,WSDL version 423,2013-05-17 11:06:00,
2013-05-17 07:11:00,54.7,50.4,27.99,East,90,0.0,0.0,86,0.00,,,0.00,WSDL version 423,2013-05-17 11:11:00,
2013-05-17 07:16:00,54.8,50.5,27.99,East,90,0.0,0.0,86,0.00,,,0.00,WSDL version 423,2013-05-17 11:16:00,
2013-05-17 07:21:00,54.9,50.6,27.99,East,90,0.0,0.0,86,0.00,,,0.00,WSDL version 423,2013-05-17 11:21:00,
2013-05-17 07:26:00,55.0,50.9,27.99,East,90,0.0,0.0,86,0.00,,,0.00,WSDL version 423,2013-05-17 11:26:00,
2013-05-17 07:31:00,54.9,50.6,27.99,East,90,0.0,0.0,86,0.00,,,0.00,WSDL version 423,2013-05-17 11:31:00,
2013-05-17 07:36:00,54.7,50.5,27.99,East,90,0.0,0.0,86,0.00,,,0.00,WSDL version 423,2013-05-17 11:36:00,
2013-05-17 07:41:00,54.8,50.6,27.99,East,90,0.0,0.0,86,0.00,,,0.00,WSDL version 423,2013-05-17 11:41:00,
2013-05-17 07:46:00,55.0,51.1,27.99,East,90,0.0,0.0,87,0.00,,,0.00,WSDL version 423,2013-05-17 11:46:00,
2013-05-17 07:51:00,55.2,51.3,27.99,East,90,0.0,0.0,87,0.00,,,0.00,WSDL version 423,2013-05-17 11:51:00,
2013-05-17 07:56:00,55.5,51.6,27.99,East,90,0.0,0.0,87,0.00,,,0.00,WSDL version 423,2013-05-17 11:56:00,
2013-05-17 08:01:00,55.9,52.3,27.99,East,90,0.0,0.0,88,0.00,,,0.00,WSDL version 423,2013-05-17 12:01:00,
2013-05-17 08:06:00,56.4,52.9,27.99,East,90,0.0,0.0,88,0.00,,,0.00,WSDL version 423,2013-05-17 12:06:00,
2013-05-17 08:11:00,56.7,53.2,27.99,East,90,0.0,0.0,88,0.00,,,0.00,WSDL version 423,2013-05-17 12:11:00,
2013-05-17 08:16:00,57.0,53.4,27.99,East,90,0.0,0.0,88,0.00,,,0.00,WSDL version 423,2013-05-17 12:16:00,
2013-05-17 08:21:00,57.3,53.7,27.99,East,90,0.0,0.0,88,0.00,,,0.00,WSDL version 423,2013-05-17 12:21:00,
2013-05-17 08:26:00,57.6,54.0,27.99,East,90,0.0,0.0,88,0.00,,,0.00,WSDL version 423,2013-05-17 12:26:00,
2013-05-17 08:31:00,57.8,54.2,27.99,East,98,0.0,0.0,88,0.00,,,0.00,WSDL version 423,2013-05-17 12:31:00,
2013-05-17 08:36:00,58.2,54.6,27.99,SSE,158,0.0,0.0,88,0.00,,,0.00,WSDL version 423,2013-05-17 12:36:00,
2013-05-17 08:46:00,58.9,54.9,27.99,SSE,158,0.0,0.0,87,0.00,,,0.00,WSDL version 423,2013-05-17 12:46:00,
2013-05-17 08:51:00,59.2,55.3,28.02,SSE,158,0.0,0.0,87,0.00,,,0.00,WSDL version 423,2013-05-17 12:51:00,
2013-05-17 08:56:00,59.6,55.3,28.02,SSE,158,0.0,0.0,86,0.00,,,0.00,WSDL version 423,2013-05-17 12:56:00,
2013-05-17 09:01:00,59.9,55.6,28.02,West,270,0.0,0.0,86,0.00,,,0.00,WSDL version 423,2013-05-17 13:01:00,
2013-05-17 09:06:00,60.3,55.7,28.02,SW,225,0.0,0.0,84,0.00,,,0.00,WSDL version 423,2013-05-17 13:06:00,
2013-05-17 09:11:00,60.6,55.9,28.02,ESE,110,0.0,0.0,84,0.00,,,0.00,WSDL version 423,2013-05-17 13:11:00,
2013-05-17 09:16:00,61.0,56.1,28.02,ENE,68,0.0,0.0,83,0.00,,,0.00,WSDL version 423,2013-05-17 13:16:00,
2013-05-17 09:21:00,61.4,56.3,28.02,SSE,158,0.0,0.0,83,0.00,,,0.00,WSDL version 423,2013-05-17 13:21:00,
2013-05-17 09:26:00,61.8,56.7,28.02,SE,128,0.0,0.0,83,0.00,,,0.00,WSDL version 423,2013-05-17 13:26:00,
2013-05-17 09:31:00,62.3,57.0,28.02,East,93,0.0,0.0,82,0.00,,,0.00,WSDL version 423,2013-05-17 13:31:00,
2013-05-17 09:36:00,62.7,57.0,28.02,NW,315,0.0,0.0,81,0.00,,,0.00,WSDL version 423,2013-05-17 13:36:00,
2013-05-17 09:41:00,63.1,57.2,28.02,NNW,335,0.0,0.0,81,0.00,,,0.00,WSDL version 423,2013-05-17 13:41:00,
2013-05-17 09:46:00,63.5,57.6,28.02,SW,225,0.0,0.0,81,0.00,,,0.00,WSDL version 423,2013-05-17 13:46:00,
2013-05-17 09:51:00,64.1,57.9,28.02,NW,305,0.0,0.0,80,0.00,,,0.00,WSDL version 423,2013-05-17 13:51:00,
2013-05-17 09:56:00,64.6,57.9,28.02,West,264,0.0,0.0,79,0.00,,,0.00,WSDL version 423,2013-05-17 13:56:00,
2013-05-17 10:01:00,65.0,58.3,28.02,WSW,248,0.0,0.0,79,0.00,,,0.00,WSDL version 423,2013-05-17 14:01:00,
2013-05-17 10:06:00,65.4,58.7,28.02,WSW,242,0.0,0.0,79,0.00,,,0.00,WSDL version 423,2013-05-17 14:06:00,
2013-05-17 10:11:00,65.6,58.8,28.02,ENE,68,0.0,0.0,78,0.00,,,0.00,WSDL version 423,2013-05-17 14:11:00,
2013-05-17 10:16:00,65.7,58.6,28.02,NE,40,0.0,0.0,77,0.00,,,0.00,WSDL version 423,2013-05-17 14:16:00,
2013-05-17 10:21:00,65.8,58.4,28.02,SSW,198,0.0,0.0,77,0.00,,,0.00,WSDL version 423,2013-05-17 14:21:00,
2013-05-17 10:26:00,66.0,58.6,28.02,SSW,203,0.0,0.0,77,0.00,,,0.00,WSDL version 423,2013-05-17 14:26:00,
2013-05-17 10:31:00,66.2,58.4,28.02,SSW,203,0.0,0.0,75,0.00,,,0.00,WSDL version 423,2013-05-17 14:31:00,
2013-05-17 10:36:00,66.4,58.2,28.02,ENE,68,0.0,0.0,75,0.00,,,0.00,WSDL version 423,2013-05-17 14:36:00,
2013-05-17 10:41:00,66.6,58.1,28.02,SSE,158,0.0,0.0,73,0.00,,,0.00,WSDL version 423,2013-05-17 14:41:00,
2013-05-17 10:46:00,66.9,57.7,28.02,East,90,0.0,0.0,72,0.00,,,0.00,WSDL version 423,2013-05-17 14:46:00,
2013-05-17 10:51:00,67.2,57.3,28.02,SSW,203,0.0,0.0,70,0.00,,,0.00,WSDL version 423,2013-05-17 14:51:00,
2013-05-17 10:56:00,67.4,57.6,28.02,South,191,0.0,0.0,70,0.00,,,0.00,WSDL version 423,2013-05-17 14:56:00,
2013-05-17 11:01:00,67.5,57.5,28.02,SSW,203,0.0,0.0,70,0.00,,,0.00,WSDL version 423,2013-05-17 15:01:00,
2013-05-17 11:06:00,67.5,56.8,28.02,ENE,76,0.0,0.0,68,0.00,,,0.00,WSDL version 423,2013-05-17 15:06:00,
2013-05-17 11:11:00,67.6,56.7,28.02,ENE,68,0.0,0.0,68,0.00,,,0.00,WSDL version 423,2013-05-17 15:11:00,
2013-05-17 11:16:00,67.6,57.0,28.02,SSE,158,0.0,0.0,69,0.00,,,0.00,WSDL version 423,2013-05-17 15:16:00,
2013-05-17 11:21:00,67.8,56.9,28.02,SSE,158,0.0,0.0,68,0.00,,,0.00,WSDL version 423,2013-05-17 15:21:00,
2013-05-17 11:26:00,67.9,57.1,28.02,SSE,158,0.0,0.0,68,0.00,,,0.00,WSDL version 423,2013-05-17 15:26:00,
2013-05-17 11:31:00,68.1,57.1,28.02,SSE,158,0.0,0.0,68,0.00,,,0.00,WSDL version 423,2013-05-17 15:31:00,
2013-05-17 11:36:00,68.3,57.7,28.02,SSE,150,0.0,0.0,69,0.00,,,0.00,WSDL version 423,2013-05-17 15:36:00,
2013-05-17 11:41:00,68.5,58.0,28.02,South,180,0.0,0.0,69,0.00,,,0.00,WSDL version 423,2013-05-17 15:41:00,
2013-05-17 11:46:00,68.9,58.3,28.02,NW,305,0.0,0.0,69,0.00,,,0.00,WSDL version 423,2013-05-17 15:46:00,
2013-05-17 11:51:00,69.3,58.2,28.02,WSW,253,0.0,0.0,67,0.00,,,0.00,WSDL version 423,2013-05-17 15:51:00,
2013-05-17 11:56:00,69.7,58.2,28.02,SSW,198,0.0,0.0,67,0.00,,,0.00,WSDL version 423,2013-05-17 15:56:00,
2013-05-17 12:01:00,70.0,57.8,28.02,West,267,0.0,0.0,65,0.00,,,0.00,WSDL version 423,2013-05-17 16:01:00,
2013-05-17 12:06:00,70.2,57.6,28.02,NW,318,0.0,0.0,65,0.00,,,0.00,WSDL version 423,2013-05-17 16:06:00,
2013-05-17 12:11:00,70.2,58.1,28.02,ESE,113,0.0,0.0,65,0.00,,,0.00,WSDL version 423,2013-05-17 16:11:00,
2013-05-17 12:16:00,70.2,57.6,28.02,NW,315,0.0,0.0,64,0.00,,,0.00,WSDL version 423,2013-05-17 16:16:00,
2013-05-17 12:21:00,70.0,57.3,28.02,NE,43,0.0,0.0,65,0.00,,,0.00,WSDL version 423,2013-05-17 16:21:00,
2013-05-17 12:26:00,69.8,57.3,28.02,ENE,68,0.0,0.0,64,0.00,,,0.00,WSDL version 423,2013-05-17 16:26:00,
2013-05-17 12:31:00,69.8,57.1,28.02,ENE,68,0.0,0.0,64,0.00,,,0.00,WSDL version 423,2013-05-17 16:31:00,
2013-05-17 12:36:00,69.8,57.6,28.02,SSE,158,0.0,0.0,66,0.00,,,0.00,WSDL version 423,2013-05-17 16:36:00,
2013-05-17 12:41:00,69.9,58.1,28.02,WNW,293,0.0,0.0,66,0.00,,,0.00,WSDL version 423,2013-05-17 16:41:00,
2013-05-17 12:46:00,70.1,58.4,28.02,SSE,165,0.0,0.0,67,0.00,,,0.00,WSDL version 423,2013-05-17 16:46:00,
2013-05-17 12:51:00,70.5,58.7,27.99,South,180,0.0,0.0,66,0.00,,,0.00,WSDL version 423,2013-05-17 16:51:00,
2013-05-17 12:56:00,71.1,59.0,27.99,WSW,258,0.0,0.0,66,0.00,,,0.00,WSDL version 423,2013-05-17 16:56:00,
2013-05-17 13:01:00,72.1,59.2,27.99,WNW,284,0.0,0.0,60,0.00,,,0.00,WSDL version 423,2013-05-17 17:01:00,
2013-05-17 13:06:00,73.9,58.4,27.99,WNW,295,0.0,1.3,56,0.00,,,0.00,WSDL version 423,2013-05-17 17:06:00,
2013-05-17 13:11:00,74.6,57.6,27.99,WNW,287,1.2,3.8,56,0.00,,,0.00,WSDL version 423,2013-05-17 17:11:00,
2013-05-17 13:16:00,74.7,57.1,27.99,West,278,1.2,3.8,55,0.00,,,0.00,WSDL version 423,2013-05-17 17:16:00,
2013-05-17 13:21:00,74.8,56.6,27.99,WNW,290,1.6,2.7,52,0.00,,,0.00,WSDL version 423,2013-05-17 17:21:00,
2013-05-17 13:26:00,74.6,54.9,27.99,WNW,299,1.6,2.7,50,0.00,,,0.00,WSDL version 423,2013-05-17 17:26:00,
2013-05-17 13:31:00,75.2,54.3,27.99,NNW,340,1.8,3.1,47,0.00,,,0.00,WSDL version 423,2013-05-17 17:31:00,
2013-05-17 13:36:00,75.7,53.0,27.99,WNW,283,2.2,6.0,45,0.00,,,0.00,WSDL version 423,2013-05-17 17:36:00,
2013-05-17 13:41:00,76.1,53.2,27.99,ESE,105,2.9,6.0,44,0.00,,,0.00,WSDL version 423,2013-05-17 17:41:00,
2013-05-17 13:46:00,75.8,51.9,27.99,NW,315,1.5,4.3,44,0.00,,,0.00,WSDL version 423,2013-05-17 17:46:00,
2013-05-17 13:51:00,75.4,51.8,27.99,West,267,1.6,3.1,44,0.00,,,0.00,WSDL version 423,2013-05-17 17:51:00,
2013-05-17 13:56:00,75.6,51.8,27.99,NW,313,1.2,2.7,42,0.00,,,0.00,WSDL version 423,2013-05-17 17:56:00,
2013-05-17 14:01:00,75.4,51.3,27.99,WNW,298,0.7,2.2,43,0.00,,,0.00,WSDL version 423,2013-05-17 18:01:00,
2013-05-17 14:06:00,75.3,51.9,27.99,NW,307,1.4,2.7,44,0.00,,,0.00,WSDL version 423,2013-05-17 18:06:00,
2013-05-17 14:11:00,75.0,52.0,27.99,ENE,59,2.3,3.6,45,0.00,,,0.00,WSDL version 423,2013-05-17 18:11:00,
2013-05-17 14:16:00,74.9,51.1,27.99,West,267,2.2,3.6,43,0.00,,,0.00,WSDL version 423,2013-05-17 18:16:00,
2013-05-17 14:21:00,74.7,51.4,27.99,West,280,0.5,3.4,45,0.00,,,0.00,WSDL version 423,2013-05-17 18:21:00,
2013-05-17 14:26:00,74.9,52.2,27.99,NW,304,1.3,2.7,45,0.00,,,0.00,WSDL version 423,2013-05-17 18:26:00,
2013-05-17 14:31:00,75.7,51.4,27.99,East,96,2.8,3.6,42,0.00,,,0.00,WSDL version 423,2013-05-17 18:31:00,
2013-05-17 14:36:00,76.7,51.8,27.96,West,262,1.2,4.0,41,0.00,,,0.00,WSDL version 423,2013-05-17 18:36:00,
2013-05-17 14:41:00,77.0,51.6,27.96,West,260,1.7,5.6,41,0.00,,,0.00,WSDL version 423,2013-05-17 18:41:00,
2013-05-17 14:46:00,76.3,51.3,27.96,NW,307,1.9,5.6,42,0.00,,,0.00,WSDL version 423,2013-05-17 18:46:00,
2013-05-17 14:51:00,75.9,50.8,27.96,NW,315,2.5,4.9,41,0.00,,,0.00,WSDL version 423,2013-05-17 18:51:00,
2013-05-17 14:56:00,76.3,51.7,27.96,East,90,2.8,5.6,41,0.00,,,0.00,WSDL version 423,2013-05-17 18:56:00,
2013-05-17 15:01:00,77.0,52.4,27.96,WNW,286,1.7,5.6,43,0.00,,,0.00,WSDL version 423,2013-05-17 19:01:00,
2013-05-17 15:06:00,77.2,52.5,27.96,North,5,1.3,4.0,42,0.00,,,0.00,WSDL version 423,2013-05-17 19:06:00,
2013-05-17 15:11:00,77.1,51.9,27.96,WSW,240,1.0,3.1,41,0.00,,,0.00,WSDL version 423,2013-05-17 19:11:00,
2013-05-17 15:16:00,77.4,51.3,27.96,West,265,1.3,3.6,41,0.00,,,0.00,WSDL version 423,2013-05-17 19:16:00,
2013-05-17 15:21:00,78.0,52.3,27.96,East,90,1.4,3.6,41,0.00,,,0.00,WSDL version 423,2013-05-17 19:21:00,
2013-05-17 15:26:00,78.3,52.5,27.96,WNW,290,1.7,2.9,40,0.00,,,0.00,WSDL version 423,2013-05-17 19:26:00,
2013-05-17 15:31:00,78.3,51.4,27.96,WNW,298,1.6,3.6,39,0.00,,,0.00,WSDL version 423,2013-05-17 19:31:00,
2013-05-17 15:36:00,78.4,51.8,27.96,West,278,1.2,3.6,39,0.00,,,0.00,WSDL version 423,2013-05-17 19:36:00,
2013-05-17 15:41:00,78.0,50.8,27.96,West,281,1.2,4.3,39,0.00,,,0.00,WSDL version 423,2013-05-17 19:41:00,
2013-05-17 15:46:00,77.4,51.6,27.96,WNW,293,1.8,4.3,41,0.00,,,0.00,WSDL version 423,2013-05-17 19:46:00,
2013-05-17 15:51:00,77.0,51.1,27.96,North,355,1.8,3.8,41,0.00,,,0.00,WSDL version 423,2013-05-17 19:51:00,
2013-05-17 15:56:00,76.3,50.0,27.96,SW,222,1.5,3.4,39,0.00,,,0.00,WSDL version 423,2013-05-17 19:56:00,
2013-05-17 16:01:00,76.5,50.8,27.96,WNW,293,1.4,3.4,41,0.00,,,0.00,WSDL version 423,2013-05-17 20:01:00,
2013-05-17 16:06:00,77.0,50.4,27.96,WNW,298,1.8,3.4,40,0.00,,,0.00,WSDL version 423,2013-05-17 20:06:00,
2013-05-17 16:11:00,77.4,49.8,27.96,South,174,1.9,3.4,37,0.00,,,0.00,WSDL version 423,2013-05-17 20:11:00,
2013-05-17 16:16:00,77.4,49.7,27.96,WNW,301,0.8,4.3,38,0.00,,,0.00,WSDL version 423,2013-05-17 20:16:00,
2013-05-17 16:21:00,77.9,50.6,27.96,WSW,253,1.5,4.3,38,0.00,,,0.00,WSDL version 423,2013-05-17 20:21:00,
2013-05-17 16:26:00,78.1,50.3,27.96,ENE,73,2.4,4.3,38,0.00,,,0.00,WSDL version 423,2013-05-17 20:26:00,
2013-05-17 16:31:00,77.4,49.5,27.96,WNW,285,0.2,4.3,38,0.00,,,0.00,WSDL version 423,2013-05-17 20:31:00,
2013-05-17 16:36:00,76.9,49.9,27.94,NW,315,1.5,3.6,39,0.00,,,0.00,WSDL version 423,2013-05-17 20:36:00,
2013-05-17 16:41:00,76.8,50.2,27.94,NW,312,1.3,2.5,39,0.00,,,0.00,WSDL version 423,2013-05-17 20:41:00,
2013-05-17 16:46:00,77.0,49.1,27.94,WNW,289,2.6,3.6,37,0.00,,,0.00,WSDL version 423,2013-05-17 20:46:00,
2013-05-17 16:51:00,77.3,49.6,27.94,NW,320,1.9,3.6,38,0.00,,,0.00,WSDL version 423,2013-05-17 20:51:00,
2013-05-17 16:56:00,77.2,49.6,27.94,WNW,293,1.2,2.7,38,0.00,,,0.00,WSDL version 423,2013-05-17 20:56:00,
2013-05-17 17:01:00,76.8,49.7,27.94,NNW,335,2.4,4.7,37,0.00,,,0.00,WSDL version 423,2013-05-17 21:01:00,
2013-05-17 17:06:00,76.4,48.6,27.94,NNW,332,1.7,4.7,39,0.00,,,0.00,WSDL version 423,2013-05-17 21:06:00,
2013-05-17 17:11:00,75.9,49.4,27.94,SE,143,1.5,3.1,39,0.00,,,0.00,WSDL version 423,2013-05-17 21:11:00,
2013-05-17 17:16:00,75.6,48.6,27.94,WNW,295,0.6,3.1,39,0.00,,,0.00,WSDL version 423,2013-05-17 21:16:00,
2013-05-17 17:21:00,75.7,49.7,27.94,NE,51,0.5,2.0,41,0.00,,,0.00,WSDL version 423,2013-05-17 21:21:00,
2013-05-17 17:26:00,75.5,50.2,27.94,NE,48,1.1,2.5,41,0.00,,,0.00,WSDL version 423,2013-05-17 21:26:00,
2013-05-17 17:31:00,75.2,49.7,27.94,NW,309,1.1,2.5,41,0.00,,,0.00,WSDL version 423,2013-05-17 21:31:00,
2013-05-17 17:36:00,75.0,50.1,27.94,WNW,285,0.9,2.7,42,0.00,,,0.00,WSDL version 423,2013-05-17 21:36:00,
2013-05-17 17:41:00,75.0,50.4,27.94,West,264,1.1,2.7,42,0.00,,,0.00,WSDL version 423,2013-05-17 21:41:00,
2013-05-17 17:46:00,75.3,50.6,27.94,West,268,0.8,2.7,42,0.00,,,0.00,WSDL version 423,2013-05-17 21:46:00,
2013-05-17 17:51:00,75.2,50.2,27.94,NNW,338,1.3,2.9,42,0.00,,,0.00,WSDL version 423,2013-05-17 21:51:00,
2013-05-17 17:56:00,75.0,50.5,27.94,NW,321,1.5,3.1,42,0.00,,,0.00,WSDL version 423,2013-05-17 21:56:00,
2013-05-17 18:01:00,75.1,50.8,27.94,NNE,20,1.5,3.1,42,0.00,,,0.00,WSDL version 423,2013-05-17 22:01:00,
2013-05-17 18:06:00,75.2,50.5,27.94,WNW,296,1.7,3.4,42,0.00,,,0.00,WSDL version 423,2013-05-17 22:06:00,
2013-05-17 18:11:00,75.2,50.3,27.94,West,268,1.3,3.4,42,0.00,,,0.00,WSDL version 423,2013-05-17 22:11:00,
2013-05-17 18:16:00,75.2,50.2,27.94,WSW,248,1.7,3.6,42,0.00,,,0.00,WSDL version 423,2013-05-17 22:16:00,
2013-05-17 18:21:00,75.0,50.6,27.94,SW,233,1.2,3.6,43,0.00,,,0.00,WSDL version 423,2013-05-17 22:21:00,
2013-05-17 18:26:00,74.6,50.4,27.94,SSE,153,1.7,3.4,42,0.00,,,0.00,WSDL version 423,2013-05-17 22:26:00,
2013-05-17 18:31:00,74.1,49.1,27.94,WSW,244,0.6,2.9,42,0.00,,,0.00,WSDL version 423,2013-05-17 22:31:00,
2013-05-17 18:36:00,73.9,49.4,27.94,SW,225,0.5,2.0,43,0.00,,,0.00,WSDL version 423,2013-05-17 22:36:00,
2013-05-17 18:41:00,73.7,50.5,27.94,NE,51,1.0,2.0,44,0.00,,,0.00,WSDL version 423,2013-05-17 22:41:00,
2013-05-17 18:46:00,73.5,49.8,27.94,West,268,1.0,2.5,44,0.00,,,0.00,WSDL version 423,2013-05-17 22:46:00,
2013-05-17 18:51:00,73.2,50.2,27.94,SSW,203,0.0,2.5,45,0.00,,,0.00,WSDL version 423,2013-05-17 22:51:00,
2013-05-17 18:56:00,72.9,50.3,27.94,ENE,70,0.1,2.5,45,0.00,,,0.00,WSDL version 423,2013-05-17 22:56:00,
2013-05-17 19:01:00,72.5,50.0,27.94,NNE,23,0.7,2.5,45,0.00,,,0.00,WSDL version 423,2013-05-17 23:01:00,
2013-05-17 19:06:00,72.1,49.0,27.94,WSW,241,0.6,2.5,44,0.00,,,0.00,WSDL version 423,2013-05-17 23:06:00,
2013-05-17 19:11:00,71.8,48.9,27.94,SSW,203,0.9,2.5,45,0.00,,,0.00,WSDL version 423,2013-05-17 23:11:00,
2013-05-17 19:16:00,71.5,49.1,27.94,SW,215,0.0,2.5,45,0.00,,,0.00,WSDL version 423,2013-05-17 23:16:00,
2013-05-17 19:21:00,71.2,48.8,27.94,WSW,248,0.0,1.1,45,0.00,,,0.00,WSDL version 423,2013-05-17 23:21:00,
2013-05-17 19:26:00,70.9,48.5,27.94,North,5,0.1,2.0,45,0.00,,,0.00,WSDL version 423,2013-05-17 23:26:00,
2013-05-17 19:31:00,70.7,48.3,27.94,SE,135,0.4,2.0,45,0.00,,,0.00,WSDL version 423,2013-05-17 23:31:00,
2013-05-17 19:36:00,70.4,48.3,27.94,SSE,158,0.0,2.0,46,0.00,,,0.00,WSDL version 423,2013-05-17 23:36:00,
2013-05-17 19:41:00,70.2,48.5,27.94,SSE,158,0.0,0.0,46,0.00,,,0.00,WSDL version 423,2013-05-17 23:41:00,
2013-05-17 19:46:00,69.9,48.2,27.94,SSE,158,0.0,0.0,46,0.00,,,0.00,WSDL version 423,2013-05-17 23:46:00,
2013-05-17 19:51:00,69.7,48.0,27.94,ESE,113,0.0,1.3,46,0.00,,,0.00,WSDL version 423,2013-05-17 23:51:00,
2013-05-17 19:56:00,69.4,47.8,27.94,NE,40,0.0,1.3,47,0.00,,,0.00,WSDL version 423,2013-05-17 23:56:00,
2013-05-17 20:01:00,69.1,48.1,27.94,ESE,115,0.6,1.3,47,0.00,,,0.00,WSDL version 423,2013-05-18 00:01:00,
2013-05-17 20:06:00,68.9,47.8,27.94,SE,135,0.4,1.3,47,0.00,,,0.00,WSDL version 423,2013-05-18 00:06:00,
2013-05-17 20:11:00,68.7,47.7,27.94,ESE,113,0.0,1.3,47,0.00,,,0.00,WSDL version 423,2013-05-18 00:11:00,
2013-05-17 20:16:00,68.5,47.6,27.94,ESE,113,0.0,0.0,48,0.00,,,0.00,WSDL version 423,2013-05-18 00:16:00,
2013-05-17 20:21:00,68.3,47.9,27.94,East,93,0.0,0.0,48,0.00,,,0.00,WSDL version 423,2013-05-18 00:21:00,
2013-05-17 20:26:00,68.1,47.7,27.94,ESE,113,0.0,0.0,48,0.00,,,0.00,WSDL version 423,2013-05-18 00:26:00,
2013-05-17 20:31:00,68.0,47.7,27.94,ESE,113,0.0,0.0,49,0.00,,,0.00,WSDL version 423,2013-05-18 00:31:00,
2013-05-17 20:36:00,67.7,48.2,27.94,ESE,113,0.0,0.0,50,0.00,,,0.00,WSDL version 423,2013-05-18 00:36:00,
2013-05-17 20:41:00,67.5,48.2,27.94,SE,130,0.0,0.0,50,0.00,,,0.00,WSDL version 423,2013-05-18 00:41:00,
2013-05-17 20:46:00,67.3,48.0,27.94,SE,135,0.0,0.0,50,0.00,,,0.00,WSDL version 423,2013-05-18 00:46:00,
2013-05-17 20:51:00,67.0,48.6,27.94,NNW,338,0.0,0.0,52,0.00,,,0.00,WSDL version 423,2013-05-18 00:51:00,
2013-05-17 20:56:00,66.6,48.5,27.94,East,90,0.0,0.0,52,0.00,,,0.00,WSDL version 423,2013-05-18 00:56:00,
2013-05-17 21:01:00,66.4,48.3,27.94,ENE,68,0.0,0.0,52,0.00,,,0.00,WSDL version 423,2013-05-18 01:01:00,
2013-05-17 21:06:00,66.3,48.6,27.94,ENE,68,0.0,0.0,53,0.00,,,0.00,WSDL version 423,2013-05-18 01:06:00,
2013-05-17 21:11:00,66.2,48.8,27.94,ENE,68,0.0,0.0,54,0.00,,,0.00,WSDL version 423,2013-05-18 01:11:00,
2013-05-17 21:16:00,66.0,49.1,27.94,ENE,68,0.0,0.0,55,0.00,,,0.00,WSDL version 423,2013-05-18 01:16:00,
2013-05-17 21:21:00,65.8,49.6,27.96,ENE,68,0.0,0.0,57,0.00,,,0.00,WSDL version 423,2013-05-18 01:21:00,
2013-05-17 21:26:00,65.6,50.2,27.96,ENE,68,0.0,0.0,58,0.00,,,0.00,WSDL version 423,2013-05-18 01:26:00,
2013-05-17 21:31:00,65.4,50.4,27.96,ENE,68,0.0,0.0,59,0.00,,,0.00,WSDL version 423,2013-05-18 01:31:00,
2013-05-17 21:36:00,65.1,50.4,27.96,East,90,0.0,0.0,59,0.00,,,0.00,WSDL version 423,2013-05-18 01:36:00,
2013-05-17 21:41:00,64.9,50.4,27.96,East,90,0.0,0.0,60,0.00,,,0.00,WSDL version 423,2013-05-18 01:41:00,
2013-05-17 21:46:00,64.6,50.7,27.96,East,90,0.0,0.0,61,0.00,,,0.00,WSDL version 423,2013-05-18 01:46:00,
2013-05-17 21:51:00,64.3,50.9,27.96,East,90,0.0,0.0,63,0.00,,,0.00,WSDL version 423,2013-05-18 01:51:00,
2013-05-17 21:56:00,64.1,51.3,27.96,East,90,0.0,0.0,63,0.00,,,0.00,WSDL version 423,2013-05-18 01:56:00,
2013-05-17 22:01:00,63.9,51.4,27.96,East,87,0.0,0.0,64,0.00,,,0.00,WSDL version 423,2013-05-18 02:01:00,
2013-05-17 22:06:00,63.8,51.9,27.96,East,90,0.0,0.0,66,0.00,,,0.00,WSDL version 423,2013-05-18 02:06:00,
2013-05-17 22:11:00,63.7,51.8,27.96,East,90,0.0,0.0,66,0.00,,,0.00,WSDL version 423,2013-05-18 02:11:00,
2013-05-17 22:16:00,63.6,52.0,27.96,East,90,0.0,0.0,67,0.00,,,0.00,WSDL version 423,2013-05-18 02:16:00,
2013-05-17 22:21:00,63.5,52.3,27.96,ENE,68,0.0,0.0,67,0.00,,,0.00,WSDL version 423,2013-05-18 02:21:00,
2013-05-17 22:26:00,63.5,52.4,27.96,ENE,73,0.0,0.0,67,0.00,,,0.00,WSDL version 423,2013-05-18 02:26:00,
2013-05-17 22:31:00,63.4,52.7,27.96,East,90,0.0,0.0,68,0.00,,,0.00,WSDL version 423,2013-05-18 02:31:00,
2013-05-17 22:36:00,63.2,52.9,27.96,East,90,0.0,0.0,70,0.00,,,0.00,WSDL version 423,2013-05-18 02:36:00,
2013-05-17 22:41:00,63.0,52.9,27.96,East,90,0.0,0.0,70,0.00,,,0.00,WSDL version 423,2013-05-18 02:41:00,
2013-05-17 22:46:00,62.8,53.2,27.96,East,82,0.0,0.0,70,0.00,,,0.00,WSDL version 423,2013-05-18 02:46:00,
2013-05-17 22:51:00,62.8,53.4,27.96,East,90,0.0,0.0,72,0.00,,,0.00,WSDL version 423,2013-05-18 02:51:00,
2013-05-17 22:56:00,62.7,53.6,27.96,East,90,0.0,0.0,73,0.00,,,0.00,WSDL version 423,2013-05-18 02:56:00,
2013-05-17 23:01:00,62.5,53.8,27.96,East,90,0.0,0.0,74,0.00,,,0.00,WSDL version 423,2013-05-18 03:01:00,
2013-05-17 23:06:00,62.3,53.9,27.96,East,90,0.0,0.0,74,0.00,,,0.00,WSDL version 423,2013-05-18 03:06:00,
2013-05-17 23:11:00,62.2,53.9,27.96,ENE,70,0.0,0.0,75,0.00,,,0.00,WSDL version 423,2013-05-18 03:11:00,
2013-05-17 23:16:00,62.2,54.2,27.96,East,90,0.0,0.0,75,0.00,,,0.00,WSDL version 423,2013-05-18 03:16:00,
2013-05-17 23:26:00,62.2,54.2,27.96,East,90,0.0,0.0,74,0.00,,,0.00,WSDL version 423,2013-05-18 03:26:00,
2013-05-17 23:31:00,62.2,54.5,27.96,East,90,0.0,0.0,77,0.00,,,0.00,WSDL version 423,2013-05-18 03:31:00,
2013-05-17 23:36:00,62.2,54.8,27.96,East,90,0.0,0.0,77,0.00,,,0.00,WSDL version 423,2013-05-18 03:36:00,
2013-05-17 23:41:00,62.2,54.9,27.96,East,90,0.0,0.0,77,0.00,,,0.00,WSDL version 423,2013-05-18 03:41:00,
2013-05-17 23:46:00,62.2,55.5,27.96,East,90,0.0,0.0,78,0.00,,,0.00,WSDL version 423,2013-05-18 03:46:00,
2013-05-17 23:51:00,62.3,55.5,27.96,East,90,0.0,0.0,78,0.00,,,0.00,WSDL version 423,2013-05-18 03:51:00,
2013-05-17 23:56:00,62.2,55.3,27.96,East,90,0.0,0.0,78,0.00,,,0.00,WSDL version 423,2013-05-18 03:56:00,